AFR343 CYUL-LFPG

Flight info

Callsign AFR343
Flight time N/A
Altitude 39000
Route ANTEG DCT OBRON DCT MOBUB DCT EBMOS DCT CEFOU N697A NEEKO/M084F390 DCT 54N050W 55N040W 55N030W 54N020W DCT MALOT/N0478F390 DCT GISTI/N0484F410 DCT LESLU DCT ANNET UM25 INGOR/N0444F280 UM25 LUKIP
Aircraft B772/H-SDE2E3FGHIJ5LORVWXY/LB1D1

Departure

Time N/A
Airport Montreal / Pierre Elliott Trudeau International Airport (CYUL)

Arrival

Time 2026-05-06 18:27
Airport Charles de Gaulle International Airport (LFPG)
Time Latitude Longitude Altitude Speed Heading
2026-05-06 16:43 53.01418 -15.06256 38987 ft 490 kts 109°
2026-05-06 16:44 52.99857 -14.95356 38983 ft 486 kts 92°
2026-05-06 16:44 52.99869 -14.84248 38990 ft 485 kts 86°
2026-05-06 16:45 52.99986 -14.73144 38991 ft 484 kts 87°
2026-05-06 16:45 53.00051 -14.61984 38991 ft 485 kts 87°
2026-05-06 16:46 53.00082 -14.50816 38980 ft 485 kts 88°
2026-05-06 16:46 53.00091 -14.39690 38988 ft 487 kts 88°
2026-05-06 16:46 53.00089 -14.34052 39117 ft 491 kts 88°
2026-05-06 16:47 53.00083 -14.28382 39440 ft 490 kts 88°
2026-05-06 16:47 53.00073 -14.22736 39800 ft 488 kts 88°
2026-05-06 16:47 53.00061 -14.17212 39996 ft 488 kts 88°
2026-05-06 16:47 53.00045 -14.11604 40144 ft 488 kts 88°
2026-05-06 16:48 52.99958 -14.05955 40266 ft 490 kts 94°
2026-05-06 16:48 52.99424 -14.00395 40375 ft 493 kts 102°
2026-05-06 16:48 52.98384 -13.94986 40477 ft 496 kts 111°
2026-05-06 16:48 52.96948 -13.89768 40623 ft 496 kts 115°
2026-05-06 16:49 52.95464 -13.84697 40767 ft 496 kts 115°
2026-05-06 16:49 52.93948 -13.79556 40887 ft 496 kts 115°
2026-05-06 16:49 52.92426 -13.74413 40971 ft 498 kts 115°
2026-05-06 16:50 52.89374 -13.64146 40985 ft 498 kts 115°
2026-05-06 16:50 52.86342 -13.53999 40994 ft 497 kts 115°
2026-05-06 16:51 52.83271 -13.43775 40982 ft 496 kts 115°
2026-05-06 16:51 52.80219 -13.33655 40984 ft 495 kts 116°
2026-05-06 16:52 52.77143 -13.23504 40973 ft 496 kts 116°
2026-05-06 16:52 52.74067 -13.13395 40986 ft 496 kts 116°
2026-05-06 16:53 52.70973 -13.03268 40985 ft 496 kts 116°
2026-05-06 16:53 52.67857 -12.93115 40981 ft 496 kts 116°
2026-05-06 16:54 52.64762 -12.83071 40977 ft 496 kts 115°
2026-05-06 16:54 52.61641 -12.72987 40978 ft 495 kts 115°
2026-05-06 16:55 52.58534 -12.62987 40980 ft 495 kts 115°
2026-05-06 16:55 52.55394 -12.52923 40989 ft 495 kts 115°
2026-05-06 16:56 52.52264 -12.42933 40971 ft 496 kts 115°
2026-05-06 16:56 52.49113 -12.32918 40982 ft 495 kts 116°
2026-05-06 16:57 52.45951 -12.22910 40977 ft 495 kts 116°
2026-05-06 16:57 52.42799 -12.12972 40972 ft 495 kts 116°
2026-05-06 16:58 52.39716 -12.03293 40974 ft 494 kts 116°
2026-05-06 16:58 52.36534 -11.93342 40987 ft 494 kts 116°
2026-05-06 16:59 52.33364 -11.83467 40979 ft 494 kts 116°
2026-05-06 16:59 52.30166 -11.73547 40981 ft 494 kts 116°
2026-05-06 17:00 52.26974 -11.63685 40985 ft 494 kts 116°
2026-05-06 17:00 52.23782 -11.53862 40981 ft 494 kts 116°
2026-05-06 17:01 52.20562 -11.43993 40990 ft 493 kts 116°
2026-05-06 17:01 52.17350 -11.34189 40987 ft 492 kts 117°
2026-05-06 17:02 52.14137 -11.24416 40984 ft 492 kts 117°
2026-05-06 17:02 52.10889 -11.14581 40989 ft 494 kts 117°
2026-05-06 17:03 52.07648 -11.04802 40987 ft 493 kts 117°
2026-05-06 17:03 52.04392 -10.95021 40979 ft 492 kts 117°
2026-05-06 17:04 52.01162 -10.85353 40983 ft 492 kts 117°
2026-05-06 17:04 51.97890 -10.75597 40985 ft 492 kts 117°
2026-05-06 17:05 51.94623 -10.65895 40980 ft 493 kts 117°
2026-05-06 17:05 51.91349 -10.56210 40984 ft 493 kts 117°
2026-05-06 17:06 51.88068 -10.46541 40983 ft 493 kts 117°
2026-05-06 17:06 51.84763 -10.36841 40987 ft 493 kts 117°
2026-05-06 17:07 51.81437 -10.27113 40987 ft 493 kts 118°
2026-05-06 17:07 51.78149 -10.17537 40983 ft 493 kts 118°
2026-05-06 17:08 51.74832 -10.07913 40983 ft 493 kts 118°
2026-05-06 17:08 51.71497 -9.98272 40983 ft 493 kts 118°
2026-05-06 17:09 51.68142 -9.88611 40982 ft 492 kts 118°
2026-05-06 17:09 51.64820 -9.79084 40974 ft 492 kts 118°
2026-05-06 17:10 51.61465 -9.69496 40971 ft 492 kts 118°
2026-05-06 17:10 51.58106 -9.59934 40975 ft 493 kts 118°
2026-05-06 17:11 51.54740 -9.50389 40980 ft 493 kts 118°
2026-05-06 17:11 51.51366 -9.40857 40980 ft 492 kts 118°
2026-05-06 17:12 51.47968 -9.31291 40981 ft 493 kts 119°
2026-05-06 17:12 51.44601 -9.21852 40980 ft 493 kts 119°
2026-05-06 17:13 51.41197 -9.12342 40980 ft 493 kts 119°
2026-05-06 17:13 51.37788 -9.02852 40982 ft 493 kts 119°
2026-05-06 17:14 51.34383 -8.93413 40981 ft 494 kts 119°
2026-05-06 17:14 51.30950 -8.83929 40984 ft 493 kts 119°
2026-05-06 17:15 51.27514 -8.74473 40984 ft 494 kts 119°
2026-05-06 17:15 51.24077 -8.65048 40984 ft 493 kts 119°
2026-05-06 17:16 51.20620 -8.55604 40985 ft 494 kts 119°
2026-05-06 17:16 51.17183 -8.46248 40985 ft 493 kts 119°
2026-05-06 17:17 51.13721 -8.36859 40988 ft 494 kts 119°
2026-05-06 17:17 51.10246 -8.27469 40987 ft 494 kts 120°
2026-05-06 17:18 51.06766 -8.18102 40992 ft 494 kts 120°
2026-05-06 17:18 51.03276 -8.08738 40990 ft 494 kts 120°
2026-05-06 17:19 50.99789 -7.99421 40989 ft 494 kts 120°
2026-05-06 17:19 50.96681 -7.89721 40990 ft 494 kts 115°
2026-05-06 17:20 50.93685 -7.79969 40995 ft 494 kts 115°
2026-05-06 17:20 50.90662 -7.70247 40988 ft 494 kts 115°
2026-05-06 17:21 50.87626 -7.60570 40994 ft 494 kts 115°
2026-05-06 17:21 50.84569 -7.50890 41001 ft 493 kts 116°
2026-05-06 17:22 50.81496 -7.41208 41000 ft 494 kts 116°
2026-05-06 17:22 50.78425 -7.31577 40998 ft 495 kts 116°
2026-05-06 17:23 50.75325 -7.21898 40999 ft 495 kts 116°
2026-05-06 17:23 50.72208 -7.12202 41003 ft 495 kts 116°
2026-05-06 17:24 50.69096 -7.02564 41005 ft 495 kts 116°
2026-05-06 17:24 50.65979 -6.92948 41006 ft 494 kts 116°
2026-05-06 17:25 50.62873 -6.83403 41007 ft 495 kts 116°
2026-05-06 17:25 50.59722 -6.73755 41005 ft 495 kts 116°
2026-05-06 17:26 50.56599 -6.64230 41002 ft 495 kts 116°
2026-05-06 17:26 50.53445 -6.54650 41003 ft 495 kts 116°
2026-05-06 17:27 50.50282 -6.45076 41004 ft 495 kts 116°
2026-05-06 17:27 50.47131 -6.35574 41002 ft 495 kts 116°
2026-05-06 17:28 50.43935 -6.25976 41001 ft 495 kts 117°
2026-05-06 17:28 50.40752 -6.16452 41000 ft 495 kts 117°
2026-05-06 17:29 50.37546 -6.06895 41001 ft 494 kts 117°
2026-05-06 17:29 50.34371 -5.97468 41001 ft 495 kts 117°
2026-05-06 17:30 50.31152 -5.87943 40998 ft 494 kts 117°
2026-05-06 17:30 50.27945 -5.78493 40997 ft 494 kts 117°
2026-05-06 17:31 50.24742 -5.69088 40998 ft 494 kts 117°
2026-05-06 17:31 50.21504 -5.59616 40997 ft 495 kts 117°
2026-05-06 17:32 50.18270 -5.50189 40997 ft 495 kts 117°
2026-05-06 17:32 50.15043 -5.40819 40996 ft 495 kts 117°
2026-05-06 17:33 50.11783 -5.31388 40992 ft 494 kts 118°
2026-05-06 17:33 50.08511 -5.21957 40993 ft 493 kts 118°
2026-05-06 17:34 50.05260 -5.12620 40989 ft 494 kts 118°
2026-05-06 17:34 50.02007 -5.03313 40990 ft 494 kts 118°
2026-05-06 17:35 49.98720 -4.93941 40990 ft 494 kts 118°
2026-05-06 17:35 49.95439 -4.84621 40989 ft 494 kts 118°
2026-05-06 17:36 49.90511 -4.70686 40988 ft 493 kts 118°
2026-05-06 17:36 49.87216 -4.61411 40987 ft 493 kts 118°
2026-05-06 17:37 49.83907 -4.52131 40985 ft 493 kts 118°
2026-05-06 17:37 49.80600 -4.42887 40986 ft 493 kts 118°
2026-05-06 17:38 49.77277 -4.33635 40985 ft 493 kts 119°
2026-05-06 17:38 49.73940 -4.24377 40983 ft 493 kts 119°
2026-05-06 17:39 49.70614 -4.15180 40981 ft 493 kts 119°
2026-05-06 17:39 49.67275 -4.05980 40980 ft 493 kts 119°
2026-05-06 17:40 49.64855 -3.96208 40983 ft 494 kts 101°
2026-05-06 17:40 49.64094 -3.85679 40981 ft 494 kts 94°
2026-05-06 17:41 49.63530 -3.75222 40981 ft 493 kts 94°
2026-05-06 17:41 49.62919 -3.64743 40980 ft 492 kts 95°
2026-05-06 17:42 49.62277 -3.54255 40981 ft 493 kts 95°
2026-05-06 17:42 49.61615 -3.43776 40981 ft 493 kts 95°
2026-05-06 17:43 49.60937 -3.33289 40980 ft 493 kts 96°
2026-05-06 17:43 49.60245 -3.22792 40977 ft 494 kts 96°
2026-05-06 17:44 49.59545 -3.12323 40980 ft 494 kts 96°
2026-05-06 17:44 49.58834 -3.01851 40980 ft 494 kts 96°
2026-05-06 17:45 49.58111 -2.91370 40979 ft 493 kts 96°
2026-05-06 17:45 49.57380 -2.80910 40981 ft 493 kts 96°
2026-05-06 17:46 49.56636 -2.70410 40983 ft 493 kts 96°
2026-05-06 17:46 49.55888 -2.59991 40982 ft 493 kts 96°
2026-05-06 17:47 49.55127 -2.49534 40984 ft 494 kts 96°
2026-05-06 17:47 49.54355 -2.39040 40982 ft 495 kts 96°
2026-05-06 17:48 49.53570 -2.28516 40982 ft 495 kts 96°
2026-05-06 17:48 49.52777 -2.18015 40982 ft 494 kts 96°
2026-05-06 17:49 49.51981 -2.07608 40987 ft 494 kts 96°
2026-05-06 17:49 49.51172 -1.97150 40979 ft 494 kts 96°
2026-05-06 17:50 49.50352 -1.86667 40972 ft 493 kts 96°
2026-05-06 17:50 49.49522 -1.76189 40969 ft 493 kts 96°
2026-05-06 17:51 49.48688 -1.65780 40969 ft 494 kts 96°
2026-05-06 17:51 49.47839 -1.55316 40967 ft 495 kts 96°
2026-05-06 17:52 49.46979 -1.44833 40967 ft 495 kts 96°
2026-05-06 17:52 49.46117 -1.34438 40961 ft 495 kts 97°
2026-05-06 17:53 49.45235 -1.23927 40962 ft 494 kts 97°
2026-05-06 17:53 49.44352 -1.13509 40963 ft 494 kts 97°
2026-05-06 17:54 49.43454 -1.03039 40962 ft 493 kts 97°
2026-05-06 17:54 49.42553 -0.92651 40966 ft 493 kts 97°
2026-05-06 17:55 49.41637 -0.82198 40963 ft 494 kts 97°
2026-05-06 17:55 49.41182 -0.77039 40883 ft 483 kts 97°
2026-05-06 17:55 49.40737 -0.72027 40281 ft 480 kts 97°
2026-05-06 17:56 49.40279 -0.66890 39139 ft 491 kts 97°
2026-05-06 17:56 49.39813 -0.61687 37971 ft 501 kts 97°
2026-05-06 17:56 49.39341 -0.56458 37190 ft 507 kts 97°
2026-05-06 17:56 49.39061 -0.53365 36659 ft 507 kts 97°
2026-05-06 17:57 49.38580 -0.48073 35634 ft 502 kts 96°
2026-05-06 17:57 49.38102 -0.42842 34865 ft 490 kts 96°
2026-05-06 17:57 49.37635 -0.37768 33950 ft 478 kts 96°
2026-05-06 17:57 49.37175 -0.32772 32591 ft 478 kts 97°
2026-05-06 17:58 49.36707 -0.27721 31015 ft 480 kts 98°
2026-05-06 17:58 49.36259 -0.22731 30205 ft 467 kts 96°
2026-05-06 17:58 49.35943 -0.17725 29851 ft 483 kts 95°
2026-05-06 17:58 49.35635 -0.12566 29269 ft 486 kts 95°
2026-05-06 17:59 49.35322 -0.07411 28628 ft 481 kts 95°
2026-05-06 17:59 49.35012 -0.02409 27994 ft 475 kts 95°
2026-05-06 17:59 49.34699 0.02583 27350 ft 469 kts 95°
2026-05-06 17:59 49.34383 0.07551 26712 ft 464 kts 95°
2026-05-06 18:00 49.34069 0.12434 26064 ft 460 kts 95°
2026-05-06 18:00 49.33755 0.17289 25414 ft 456 kts 95°
2026-05-06 18:00 49.33446 0.22007 24846 ft 449 kts 95°
2026-05-06 18:00 49.33139 0.26657 24766 ft 431 kts 95°
2026-05-06 18:01 49.32839 0.31168 24691 ft 413 kts 95°
2026-05-06 18:01 49.32552 0.35446 24546 ft 400 kts 95°
2026-05-06 18:01 49.32272 0.39604 24372 ft 387 kts 95°
2026-05-06 18:01 49.31997 0.43663 24199 ft 375 kts 95°
2026-05-06 18:02 49.31734 0.47521 24038 ft 364 kts 95°
2026-05-06 18:02 49.31486 0.51336 23857 ft 354 kts 92°
2026-05-06 18:02 49.31442 0.55121 23442 ft 359 kts 88°
2026-05-06 18:02 49.31438 0.58922 23003 ft 360 kts 89°
2026-05-06 18:03 49.31419 0.62747 22600 ft 356 kts 89°
2026-05-06 18:03 49.31388 0.66541 22213 ft 353 kts 90°
2026-05-06 18:03 49.31353 0.70239 21836 ft 349 kts 90°
2026-05-06 18:03 49.31312 0.73957 21455 ft 347 kts 90°
2026-05-06 18:04 49.31268 0.77662 21074 ft 345 kts 90°
2026-05-06 18:04 49.31223 0.81321 20703 ft 344 kts 90°
2026-05-06 18:04 49.31176 0.84960 20330 ft 343 kts 90°
2026-05-06 18:04 49.31128 0.88590 19957 ft 341 kts 90°
2026-05-06 18:05 49.31078 0.92191 19591 ft 339 kts 90°
2026-05-06 18:05 49.31028 0.95772 19222 ft 336 kts 90°
2026-05-06 18:05 49.30977 0.99352 18855 ft 334 kts 90°
2026-05-06 18:05 49.30926 1.02870 18493 ft 333 kts 90°
2026-05-06 18:06 49.30873 1.06400 18133 ft 331 kts 90°
2026-05-06 18:06 49.30820 1.09924 17762 ft 328 kts 90°
2026-05-06 18:06 49.30766 1.13367 17416 ft 326 kts 90°
2026-05-06 18:06 49.30712 1.16837 17066 ft 324 kts 89°
2026-05-06 18:07 49.30656 1.20292 16712 ft 324 kts 90°
2026-05-06 18:07 49.30600 1.23750 16358 ft 322 kts 89°
2026-05-06 18:07 49.30543 1.27142 16015 ft 320 kts 89°
2026-05-06 18:07 49.30485 1.30550 15660 ft 317 kts 89°
2026-05-06 18:08 49.30427 1.33879 15313 ft 314 kts 89°
2026-05-06 18:08 49.30369 1.37216 14967 ft 312 kts 89°
2026-05-06 18:08 49.30310 1.40516 14630 ft 310 kts 89°
2026-05-06 18:08 49.30250 1.43826 14289 ft 310 kts 89°
2026-05-06 18:09 49.30190 1.47090 13953 ft 308 kts 89°
2026-05-06 18:09 49.30129 1.50362 13621 ft 307 kts 89°
2026-05-06 18:09 49.30067 1.53624 13284 ft 306 kts 89°
2026-05-06 18:09 49.30004 1.56904 12944 ft 305 kts 89°
2026-05-06 18:10 49.29897 1.60085 12709 ft 301 kts 92°
2026-05-06 18:10 49.29741 1.63312 12576 ft 302 kts 91°
2026-05-06 18:10 49.29590 1.66536 12420 ft 301 kts 92°
2026-05-06 18:10 49.29445 1.69748 12248 ft 300 kts 92°
2026-05-06 18:11 49.29302 1.72921 12080 ft 299 kts 92°
2026-05-06 18:11 49.29158 1.76116 11909 ft 299 kts 92°
2026-05-06 18:11 49.29018 1.79247 11844 ft 297 kts 92°
2026-05-06 18:11 49.28873 1.82442 11831 ft 299 kts 92°
2026-05-06 18:12 49.28729 1.85612 11800 ft 299 kts 92°
2026-05-06 18:12 49.28585 1.88753 11758 ft 299 kts 92°
2026-05-06 18:12 49.28439 1.91932 11716 ft 299 kts 92°
2026-05-06 18:12 49.28292 1.95089 11675 ft 299 kts 92°
2026-05-06 18:13 49.28142 1.98296 11622 ft 299 kts 92°
2026-05-06 18:13 49.27995 2.01431 11586 ft 299 kts 92°
2026-05-06 18:13 49.27845 2.04620 11557 ft 299 kts 92°
2026-05-06 18:13 49.27695 2.07784 11514 ft 298 kts 92°
2026-05-06 18:14 49.27545 2.10916 11458 ft 297 kts 92°
2026-05-06 18:14 49.27392 2.14109 11445 ft 297 kts 92°
2026-05-06 18:14 49.27241 2.17227 11405 ft 297 kts 92°
2026-05-06 18:14 49.27088 2.20380 11355 ft 296 kts 92°
2026-05-06 18:15 49.26936 2.23492 11301 ft 296 kts 92°
2026-05-06 18:15 49.26782 2.26629 11272 ft 296 kts 92°
2026-05-06 18:15 49.26626 2.29791 11226 ft 296 kts 92°
2026-05-06 18:15 49.26470 2.32933 11181 ft 296 kts 92°
2026-05-06 18:16 49.26313 2.36073 11147 ft 296 kts 92°
2026-05-06 18:16 49.26155 2.39219 11099 ft 296 kts 92°
2026-05-06 18:16 49.25998 2.42331 11062 ft 296 kts 92°
2026-05-06 18:16 49.25839 2.45459 11022 ft 296 kts 92°
2026-05-06 18:17 49.25679 2.48591 10981 ft 295 kts 92°
2026-05-06 18:17 49.25492 2.51697 10925 ft 295 kts 96°
2026-05-06 18:17 49.25160 2.54797 10578 ft 299 kts 98°
2026-05-06 18:17 49.24783 2.57947 9998 ft 305 kts 98°
2026-05-06 18:18 49.24397 2.61190 9314 ft 314 kts 98°
2026-05-06 18:18 49.24007 2.64476 8526 ft 320 kts 98°
2026-05-06 18:18 49.23616 2.67776 7849 ft 312 kts 98°
2026-05-06 18:18 49.23229 2.71026 7220 ft 304 kts 98°
2026-05-06 18:19 49.22851 2.74079 6950 ft 285 kts 99°
2026-05-06 18:19 49.22479 2.76923 6969 ft 262 kts 99°
2026-05-06 18:19 49.22129 2.79621 6936 ft 251 kts 99°
2026-05-06 18:19 49.21800 2.82162 6932 ft 239 kts 99°
2026-05-06 18:20 49.21340 2.84546 6930 ft 232 kts 110°
2026-05-06 18:20 49.20678 2.86828 6932 ft 236 kts 112°
2026-05-06 18:20 49.19829 2.88928 6926 ft 236 kts 130°
2026-05-06 18:20 49.18455 2.90355 6913 ft 241 kts 162°
2026-05-06 18:21 49.16801 2.90625 6924 ft 241 kts 181°
2026-05-06 18:21 49.15118 2.90549 6790 ft 247 kts 182°
2026-05-06 18:21 49.13387 2.90453 6470 ft 250 kts 182°
2026-05-06 18:21 49.11628 2.90352 6108 ft 254 kts 182°
2026-05-06 18:22 49.09843 2.90251 5723 ft 259 kts 182°
2026-05-06 18:22 49.08054 2.90150 5323 ft 261 kts 182°
2026-05-06 18:22 49.06250 2.90050 4956 ft 257 kts 182°
2026-05-06 18:22 49.04458 2.89955 4575 ft 257 kts 182°
2026-05-06 18:23 49.02683 2.89798 4207 ft 252 kts 193°
2026-05-06 18:23 49.01140 2.88726 3866 ft 243 kts 219°
2026-05-06 18:23 49.00049 2.86828 3583 ft 237 kts 249°
2026-05-06 18:23 48.99764 2.84410 3256 ft 230 kts 281°
2026-05-06 18:24 49.00272 2.82180 3009 ft 217 kts 296°
2026-05-06 18:24 49.00545 2.80004 2983 ft 210 kts 273°
2026-05-06 18:24 49.00442 2.77735 2718 ft 215 kts 268°
2026-05-06 18:24 49.00295 2.75468 2448 ft 215 kts 268°
2026-05-06 18:25 49.00172 2.73227 2143 ft 202 kts 269°
2026-05-06 18:25 49.00066 2.71222 1904 ft 182 kts 270°
2026-05-06 18:25 48.99971 2.69371 1654 ft 171 kts 270°
2026-05-06 18:25 48.99879 2.67631 1427 ft 155 kts 270°
2026-05-06 18:26 48.99796 2.66081 1231 ft 142 kts 270°
2026-05-06 18:26 48.99711 2.64601 1034 ft 139 kts 269°
2026-05-06 18:26 48.99638 2.63158 820 ft 137 kts 270°
2026-05-06 18:26 48.99564 2.61694 625 ft 137 kts 268°
2026-05-06 18:27 48.99486 2.60259 447 ft 136 kts 268°
2026-05-06 18:27 48.99417 2.58915 408 ft 109 kts 266°
2026-05-06 18:27 48.99366 2.57956 408 ft 74 kts 266°
2026-05-06 18:27 48.99334 2.57359 408 ft 38 kts 265°
2026-05-06 18:28 48.99315 2.57013 408 ft 32 kts 267°
2026-05-06 18:28 48.99335 2.56742 408 ft 18 kts 303°
2026-05-06 18:28 48.99417 2.56655 408 ft 15 kts 345°
2026-05-06 18:28 48.99480 2.56642 408 ft 0 kts 354°
2026-05-06 18:29 48.99487 2.56641 408 ft 2 kts 354°
2026-05-06 18:29 48.99523 2.56635 408 ft 7 kts 354°
2026-05-06 18:30 48.99588 2.56627 408 ft 11 kts 356°
2026-05-06 18:30 48.99679 2.56616 408 ft 14 kts 355°
2026-05-06 18:30 48.99778 2.56607 408 ft 15 kts
2026-05-06 18:30 48.99835 2.56739 408 ft 18 kts 84°
2026-05-06 18:31 48.99847 2.56945 408 ft 21 kts 85°
2026-05-06 18:31 48.99861 2.57180 408 ft 23 kts 87°
2026-05-06 18:31 48.99871 2.57408 408 ft 22 kts 85°
2026-05-06 18:31 48.99886 2.57659 408 ft 25 kts 85°
2026-05-06 18:32 48.99900 2.57941 408 ft 27 kts 85°
2026-05-06 18:32 48.99914 2.58206 408 ft 23 kts 86°
2026-05-06 18:32 48.99928 2.58466 408 ft 25 kts 85°
2026-05-06 18:32 48.99939 2.58660 408 ft 13 kts 84°
2026-05-06 18:33 49.00005 2.58742 408 ft 15 kts 13°
2026-05-06 18:33 49.00108 2.58768 408 ft 15 kts
2026-05-06 18:33 49.00213 2.58757 408 ft 15 kts 355°
2026-05-06 18:33 49.00308 2.58746 408 ft 12 kts 355°
2026-05-06 18:34 49.00364 2.58728 408 ft 6 kts 307°
2026-05-06 18:34 49.00367 2.58657 408 ft 6 kts 265°
2026-05-06 18:34 49.00365 2.58617 408 ft 0 kts 266°
2026-05-06 18:34 49.00365 2.58616 408 ft 0 kts 266°